Location: ?????????
(54.7630°N, 39.4991°E)
Time: 21:02:18
(UTC+00:00)

Cosmos 44 - Pass Details

Date: 14 April 2026
Orbit: 568 x 782 km, 65.1° (Epoch: 16 May)

Event Time Altitude Azimuth Distance (km) Brightness Sun altitude
Exits shadow 21:16:16 42° 261° (W) 1,072 4.1 -25.6°
Maximum altitude 21:17:54 63° 322° (NW) 849 3.8 -25.6°
Drops below altitude 10° 21:23:15 10° 44° (NE) 2,335 6.6 -25.6°
Sets 21:25:45 0° 48° (NE) 3,275 7.4 -25.6°
